Location: Montreal
(45.5000°N, 73.5833°W)
Time: 17:11:42
(UTC-04:00)

ISS - Pass Details

Date: 10 October 2017
Orbit: 401 x 408 km, 51.6° (Epoch: 23 October)

Event Time Altitude Azimuth Distance (km) Brightness Sun altitude
Rises 19:41:25 0° 299° (WNW) 2,328 1.3 -15.5°
Reaches altitude 10° 19:43:30 10° 302° (WNW) 1,467 0.0 -15.9°
Maximum altitude 19:46:47 66° 25° (NNE) 448 -3.8 -16.5°
Enters shadow 19:47:32 46° 87° (E) 552 -3.6 -16.6°
